Weather in Middelburg

Netherlands     51°29′48″N   3°37′00″E
temp.,
°C
wind,
m/s
gust,
m/s
humid.,
%
clouds,
%
prec.,
mm/h
press.,
hPa
HPBL,
m
22 october, fri
fri2223:00+12wnw1010555 0.1 10161600
02:00+12wnw1112567 0.1 10161500
05:00+12w1214640 0.0 10151523
08:00+12w14166876 0.2 10151631
11:00+12wnw141668100 0.1 10171651
14:00+13w131467100 0.2 10181562
17:00+12wnw111272100 0.4 10191196
20:00+13nnw887092 1.3 10211067
23 october, sat
sat2323:00+13nnw456367 0.0 10241029
02:00+13nw1258100 0.1 1025852
05:00+11ssw337170 0.0 1025300
08:00+10s458145 0.0 1025188
11:00+11ssw4483100 0.0 1026235
14:00+13wsw55705 0.1 1026836
17:00+13wsw34665 0.0 1026460
20:00+13sse346699 0.0 1026191
24 october, sun
sun2423:00+12s5867100 0.0 1026302
02:00+11s697073 0.0 1025272
05:00+9s68725 0.0 1024220
08:00+9s69805 0.0 1023270
11:00+10s69715 0.0 1023335
14:00+13s57605 0.0 1022660
17:00+14s5860100 0.0 1020807
20:00+12s5868100 0.0 1020314
25 october, mon
mon2523:00+11ssw697196 0.0 1019261
02:00+10ssw697281 0.0 1018230
05:00+9ssw6973100 0.0 1018214
08:00+10s71076100 0.0 1017274
11:00+11ssw61077100 0.4 1018375
14:00+14wsw69821 0.6 1018537
17:00+14wsw61080100 0.4 1017382
20:00+14wsw688278 1.4 1018450
26 october, tue
tue2623:00+14wsw58795 0.3 1020526
02:00+13wsw57835 0.6 1020532
05:00+11sw68899 0.3 1020315
08:00+12sw5884100 0.4 1021387
11:00+12ssw6988100 0.0 1022294
14:00+13ssw71191100 0.0 1021451
17:00+13ssw81288100 0.2 1021516
20:00+13ssw7119170 0.2 1022377